sat.trackr.live / text

‹ back to catalog

STARLINK-2273

NORAD 47993 · 2021-024S

PAYLOAD ACTIVE UNKNOWN

§ Identity

Operator
Country
US
Launch date
2021-03-24
Launch site
AFETR
Launch vehicle
Mass (kg)
RCS (m²)

Purposes: comms

External: N2YO · Heavens-Above · Gunter

§ Orbital elements

Epoch: 2026-09-20T04:00:03.000096Z

Period
90.13 min
Inclination
53.1396°
Eccentricity
0.0001140
Mean motion
15.97755851 rev/d
Perigee alt
279.9 km
Apogee alt
281.4 km
Semi-major
6,658.8 km
B*
1.9524e-3
RAAN
71.6601°
Arg perigee
301.0024°
Mean anomaly
262.1131°
Rev number
600

§ Raw data

STARLINK-22731 47993U 21024S   26263.16670139  .00896673  38025-3  19524-2 0  99962 47993  53.1396  71.6601 0001140 301.0024 262.1131 15.97755851  6003

JSON: /api/v1/satellites/47993 · /tle

For live sub-satellite position, see the globe view (requires WebGL).

§ Visibility from observer

Set your observer location to see the next 7 days of passes ≥ 10°. The values pass through the URL so the page stays shareable.

No JS? Fill the form by hand. The geolocation button needs JavaScript.